Location: �couen
(49.0206°N, 2.3831°E)
Time: 12:17:48
(UTC+00:00)

Cosmos 2227 - Visible Passes

Search period start: 29 May 2022 00:00
Search period end: 08 June 2022 00:00
Orbit: 834 x 862 km, 71.0° (Epoch: 29 May)

Date Brightness Start Highest point End Pass type
(mag) Time Alt. Az. Time Alt. Az. Time Alt. Az.
29 May 4.5 20:17:49 10° NNW 20:23:33 60° ENE 20:29:14 10° SE visible
29 May 5.8 22:02:39 10° NW 22:07:20 26° WSW 22:11:39 11° SSW visible
30 May 5.8 21:49:25 10° NW 21:54:08 27° WSW 21:58:50 10° SSW visible
31 May 5.8 21:36:12 10° NW 21:40:56 27° WSW 21:45:40 10° SSW visible
01 Jun 5.8 21:22:58 10° NW 21:27:45 27° WSW 21:32:30 10° SSW visible
02 Jun 5.9 21:09:44 10° NW 21:14:33 28° WSW 21:19:20 10° SSW visible
03 Jun 5.9 20:56:30 10° NW 21:01:21 28° WSW 21:06:10 10° SSW visible
04 Jun 5.9 20:43:17 10° NW 20:48:09 29° WSW 20:53:00 10° SSW visible
05 Jun 5.9 20:30:03 10° NW 20:34:56 29° WSW 20:39:49 10° SSW visible
